sat.trackr.live / text

‹ back to catalog

OTP-2

NORAD 63235 · 2025-052AB

PAYLOAD ACTIVE UNKNOWN

§ Identity

Operator
Country
US
Launch date
2025-03-15
Launch site
AFWTR
Launch vehicle
Mass (kg)
RCS (m²)

Purposes: comms

External: N2YO · Heavens-Above · Gunter

§ Orbital elements

Epoch: 2026-09-19T09:55:06.429504Z

Period
94.42 min
Inclination
97.3717°
Eccentricity
0.0005947
Mean motion
15.25100896 rev/d
Perigee alt
486.4 km
Apogee alt
494.6 km
Semi-major
6,868.6 km
B*
2.2242e-4
RAAN
153.4405°
Arg perigee
173.2242°
Mean anomaly
186.9077°
Rev number
8,422

§ Raw data

OTP-21 63235U 25052AB  26262.41326886  .00005498  00000+0  22242-3 0  99992 63235  97.3717 153.4405 0005947 173.2242 186.9077 15.25100896 84224

JSON: /api/v1/satellites/63235 · /tle

For live sub-satellite position, see the globe view (requires WebGL).

§ Visibility from observer

Set your observer location to see the next 7 days of passes ≥ 10°. The values pass through the URL so the page stays shareable.

No JS? Fill the form by hand. The geolocation button needs JavaScript.

§ Radio — SatNOGS DB

ModeDescriptionDownlinkUplink
FSK Mode S - FSK 50k - Transmitter 2.223 GHz
GFSK Mode U - GFSK4k8 - AX.25 - Telemetry 400.500 MHz

2 transmitters · refreshed weekly from db.satnogs.org